Weather History for Syracuse, NY

Change the Weather History Date:

Sunday, April 1, 2012

  Actual Average Record
Temperature  
Mean Temperature 40 °F 41 °F  
Max Temperature 42 °F 50 °F 84 °F (1986)
Min Temperature 37 °F 31 °F 7 °F (1923)
Degree Days  
Heating Degree Days 25 24  
Month to date heating degree days 25 24  
Since 1 July heating degree days 4459 5812  
Cooling Degree Days 0 0  
Month to date cooling degree days 0 0  
Year to date cooling degree days 1 0  
Moisture  
Dew Point 36 °F    
Average Humidity 90    
Maximum Humidity 100    
Minimum Humidity 79    
Precipitation  
Precipitation 0.14 in 0.11 in 1.73 in (1973)
Month to date precipitation 0.14 0.11  
Year to date precipitation 7.39 7.63  
Snow  
Snow 0.00 in 0.20 in 4.80 in (1962)
Month to date snowfall 0.0 0.2  
Since 1 July snowfall 50.6 120.1  
Snow Depth 0.00 in    
Sea Level Pressure  
Sea Level Pressure 29.77 in    
Wind  
Wind Speed 5 mph (WNW)    
Max Wind Speed 13 mph    
Max Gust Speed 16 mph    
Visibility 8 miles    
Events Rain    
T = Trace of Precipitation, MM = Missing Value Source: NWS Daily Summary

Daily Weather History Graph

Daily Weather History Graph

Search for Another Location

Airport:

Trip Planner

Search our weather history database for the weather conditions in past years. The results will help you decide how hot, cold, wet, or windy it might be!

Date:

Astronomy

Apr. 01, 2012 Rise Set
Actual Time 6:45 AM EDT 7:31 PM EDT
Civil Twilight 6:16 AM EDT 8:00 PM EDT
Nautical Twilight 5:42 AM EDT 8:34 PM EDT
Astronomical Twilight 5:07 AM EDT 9:09 PM EDT
Moon 1:51 PM EDT (4/1) 3:29 AM EDT (4/1)
Length of Visible Light 13h 43m
Length of Day
12h 45m
Waxing Gibbous, 69% of the Moon is Illuminated
Apr 1
Waxing Gibbous
Apr 6
Full
Apr 13
Last Quarter
Apr 21
New
Apr 29
First Quarter

Hourly Weather History & Observations

Time (EDT) Temp. Windchill Dew Point Humidity Pressure Visibility Wind Dir Wind Speed Gust Speed Precip Events Conditions
12:54 AM 39.9 °F 36.7 °F 34.0 °F 79% 29.91 in 10.0 mi WNW 4.6 mph - N/A   Overcast
1:54 AM 39.9 °F 36.7 °F 34.0 °F 79% 29.90 in 10.0 mi WNW 4.6 mph - N/A   Mostly Cloudy
2:54 AM 39.0 °F 34.8 °F 34.0 °F 82% 29.89 in 10.0 mi NNW 5.8 mph - N/A   Overcast
3:54 AM 39.0 °F 36.8 °F 33.1 °F 79% 29.88 in 10.0 mi NW 3.5 mph - N/A   Overcast
4:54 AM 37.9 °F - 33.1 °F 83% 29.86 in 10.0 mi Calm Calm - N/A   Overcast
5:40 AM 39.2 °F 37.0 °F 33.8 °F 81% 29.87 in 10.0 mi WNW 3.5 mph - N/A   Overcast
5:54 AM 39.0 °F 36.8 °F 33.1 °F 79% 29.87 in 10.0 mi WNW 3.5 mph - N/A   Overcast
6:54 AM 39.0 °F - 33.1 °F 79% 29.87 in 10.0 mi Calm Calm - N/A   Overcast
7:54 AM 39.0 °F 36.8 °F 33.1 °F 79% 29.87 in 10.0 mi West 3.5 mph - N/A   Overcast
8:54 AM 39.9 °F 36.7 °F 34.0 °F 79% 29.85 in 10.0 mi WSW 4.6 mph - 0.00 in Rain Light Rain
9:54 AM 41.0 °F 37.1 °F 35.1 °F 79% 29.83 in 10.0 mi WSW 5.8 mph - 0.01 in   Overcast
10:20 AM 41.0 °F 36.4 °F 35.6 °F 81% 29.82 in 10.0 mi West 6.9 mph - N/A   Overcast
10:54 AM 42.1 °F 39.2 °F 36.0 °F 79% 29.81 in 10.0 mi West 4.6 mph - 0.00 in Rain Light Rain
11:26 AM 41.0 °F 39.0 °F 35.6 °F 81% 29.80 in 9.0 mi West 3.5 mph - 0.00 in Rain Light Rain
11:54 AM 41.0 °F 35.8 °F 36.0 °F 82% 29.79 in 10.0 mi West 8.1 mph - 0.01 in Rain Light Rain
12:54 PM 39.9 °F 35.8 °F 36.0 °F 86% 29.76 in 6.0 mi SW 5.8 mph - 0.04 in Rain Light Rain
1:54 PM 39.0 °F 36.8 °F 36.0 °F 89% 29.74 in 8.0 mi NW 3.5 mph - 0.03 in Rain Light Rain
2:14 PM 39.2 °F 35.9 °F 35.6 °F 87% 29.74 in 4.0 mi NNW 4.6 mph - 0.01 in Rain Light Rain
2:54 PM 39.9 °F - 36.0 °F 86% 29.72 in 10.0 mi Calm Calm - 0.03 in Rain Light Rain
3:05 PM 39.2 °F 37.0 °F 37.4 °F 93% 29.71 in 10.0 mi WNW 3.5 mph - 0.00 in Rain Light Rain
3:43 PM 39.2 °F - 35.6 °F 87% 29.71 in 10.0 mi Calm Calm - 0.00 in Rain Light Rain
3:54 PM 39.9 °F 37.8 °F 36.0 °F 86% 29.71 in 10.0 mi NW 3.5 mph - 0.00 in Rain Light Rain
4:54 PM 39.9 °F - 36.0 °F 86% 29.70 in 8.0 mi Calm Calm - 0.00 in Rain Light Rain
5:19 PM 39.2 °F 37.0 °F 37.4 °F 93% 29.69 in 3.0 mi West 3.5 mph - 0.01 in Rain Light Rain
5:54 PM 39.0 °F 35.7 °F 37.0 °F 93% 29.69 in 5.0 mi WSW 4.6 mph - 0.02 in Rain Light Rain
6:11 PM 39.2 °F 37.0 °F 37.4 °F 93% 29.69 in 6.0 mi WSW 3.5 mph - 0.00 in Rain Light Rain
6:54 PM 39.0 °F 35.7 °F 37.0 °F 93% 29.69 in 3.0 mi West 4.6 mph - 0.00 in Rain Light Rain
7:19 PM 39.2 °F 35.0 °F 37.4 °F 93% 29.69 in 5.0 mi West 5.8 mph - 0.00 in Rain Light Rain
7:54 PM 39.0 °F 34.0 °F 37.0 °F 93% 29.70 in 3.0 mi West 6.9 mph - 0.00 in Rain Light Rain
8:20 PM 37.4 °F 32.1 °F 37.4 °F 100% 29.70 in 5.0 mi WNW 6.9 mph - 0.00 in Rain Light Rain
8:54 PM 39.0 °F 34.0 °F 37.0 °F 93% 29.71 in 3.0 mi WNW 6.9 mph - 0.00 in Rain Light Rain
9:54 PM 37.9 °F 32.1 °F 36.0 °F 93% 29.73 in 8.0 mi NW 8.1 mph - 0.00 in Rain Light Rain
10:54 PM 37.9 °F 32.1 °F 37.0 °F 97% 29.73 in 3.0 mi NNW 8.1 mph - 0.00 in Rain Light Rain
11:23 PM 37.4 °F 32.1 °F 37.4 °F 100% 29.73 in 10.0 mi NNW 6.9 mph - 0.00 in   Overcast
11:54 PM 37.9 °F 31.5 °F 36.0 °F 93% 29.73 in 10.0 mi North 9.2 mph - 0.00 in   Mostly Cloudy